RH
49 44 44 47 60 64 61 72 67 61 61 60 52 54 55 45 42 43 48 51 52 48 44 53 51 45 44 43 48 55 56 54 47 46 43 38 35 38 48 44 41 50 49 57 58
40 42 45 47 50 61 65 69 69 67 65 62 57 56 59 46 44 46 53 48 46 45 49 56 54 54 50 48 48 53 59 55 44 43 41 40 40 37 42 53 47 41 50 58 53
45 42 42 38 50 55 62 64 65 66 64 61 58 61 60 49 46 56 51 46 44 47 54 53 50 50 45 46 51 53 56 52 48 47 43 46 48 41 44 47 54 54 44 57 55
50 45 39 35 42 53 60 59 60 64 75 60 57 60 61 53 51 56 46 44 53 46 44 41 42 45 45 43 44 48 51 54 53 50 50 47 49 48 50 50 55 63 56 62 65
53 53 40 35 37 46 57 57 63 64 74 73 57 61 50 49 48 45 46 44 40 36 34 35 34 33 35 32 32 37 43 46 45 47 47 51 51 52 52 52 58 62 65 58 61
58 46 38 36 39 45 55 56 61 63 59 62 62 49 51 50 46 46 46 37 36 34 34 34 35 38 36 33 34 33 36 38 35 39 46 46 50 55 42 49 52 57 57 53 62
61 49 38 40 43 37 45 64 62 60 60 61 59 47 47 47 47 43 33 31 35 36 35 40 39 39 45 47 47 48 47 45 34 31 33 42 46 47 45 41 51 51 48 54 59
64 54 39 37 49 64 48 59 62 65 76 59 48 47 52 48 45 35 33 35 37 36 36 39 45 48 51 53 53 58 55 57 39 49 40 40 50 50 44 36 42 40 48 52 53
72 58 36 27 48 57 78 67 72 67 55 56 55 56 51 46 36 34 37 40 46 44 46 49 57 60 62 68 68 64 65 63 52 59 56 50 46 36 45 49 45 47 44 47 50
74 55 40 34 27 40 52 73 72 68 63 60 55 50 50 48 40 44 46 49 53 56 57 69 71 79 77 79 72 71 73 89 75 61 66 53 52 47 55 57 42 42 42 41 47
71 55 46 52 35 36 47 74 84 77 69 56 47 52 46 45 44 52 58 62 67 70 76 78 90 84 78 75 74 78 83 74 65 67 70 55 67 61 89 69 55 52 41 38 46
68 62 65 95 75 57 74 87 60 61 59 61 50 49 51 51 56 63 66 73 76 84 91 93 89 77 73 78 75 76 78 76 67 63 60 62 71 60 66 69 55 47 43 42 47
52 56 73 92 93 83 84 88 58 62 59 54 46 55 56 62 66 72 75 79 82 85 88 91 79 78 79 75 68 74 71 70 80 82 67 78 90 65 50 53 51 43 43 50 63
49 44 52 59 80 97 97 82 68 61 63 47 55 60 64 67 75 77 79 77 81 84 83 80 73 76 72 67 71 80 78 74 81 95 94 78 72 55 59 58 54 46 51 67 74
49 62 54 55 75 87 94 82 56 60 64 48 60 59 72 75 78 79 72 74 77 75 76 76 76 68 69 70 75 72 86 86 81 88 86 67 90 90 83 74 66 62 73 79 69
53 78 62 80 85 83 82 81 65 55 63 57 62 70 73 76 78 82 81 78 76 75 74 74 72 74 70 76 84 84 93 95 97 98 98 86 95 99 98 91 86 85 86 84 90
68 68 70 71 84 86 79 54 55 63 47 61 66 68 70 73 76 79 86 85 76 74 73 74 75 78 82 87 88 92 98 98 96 96 98 95 95 98 96 90 90 87 86 95 97
50 51 67 87 91 90 73 55 58 47 59 60 65 69 74 73 73 76 85 81 78 77 86 86 87 84 86 95 98 98 98 98 97 97 98 85 97 98 93 93 88 87 92 94 94
44 60 71 81 94 64 59 61 62 58 55 60 63 67 71 68 69 71 75 76 77 78 89 94 85 79 87 88 91 90 96 88 98 78 90 98 99 97 96 97 92 92 94 93 94
44 70 88 89 80 66 59 55 53 53 56 53 56 58 62 63 67 68 74 71 74 76 78 72 83 80 82 85 84 85 77 86 94 92 95 97 97 97 98 98 87 89 91 96 92
62 84 90 87 61 55 58 53 51 50 47 53 51 52 53 58 63 64 68 71 73 78 77 69 79 77 77 74 76 71 68 65 67 63 62 81 96 88 94 94 94 86 84 81 80
70 85 80 58 52 46 50 49 49 46 45 47 48 49 52 53 55 59 65 69 72 76 70 66 70 77 69 63 62 62 57 58 70 66 62 67 84 71 68 68 71 73 74 71 70
75 73 66 52 49 42 42 42 46 42 43 46 44 44 44 46 55 52 55 58 67 68 63 61 66 76 66 67 58 55 52 54 54 63 57 64 78 68 64 63 63 62 61 62 60
61 57 48 47 41 39 40 39 37 36 38 40 39 41 38 41 41 47 50 50 51 54 59 63 65 71 77 66 63 59 52 51 56 61 58 65 61 59 59 61 58 56 57 55 50
48 46 43 42 35 36 38 35 33 35 31 32 35 36 35 37 37 40 40 45 44 48 51 53 59 59 53 53 53 50 50 50 50 48 55 55 56 51 46 45 44 45 44 41 39
51 46 39 36 30 32 36 34 30 31 35 30 34 33 32 38 38 40 39 39 42 41 44 47 53 51 47 42 41 42 42 44 45 46 46 49 51 46 40 38 35 35 35 32 30
41 37 35 32 31 32 33 32 29 31 31 31 32 37 36 37 34 32 33 35 36 36 36 36 39 45 47 35 34 42 36 36 37 39 41 44 42 41 37 33 29 26 23 21 20